Regional Weather Roundup
Issued by NWS

Home | Current Version | Previous Version | Text Only | Print | Product List | Glossary Off
Versions: 1 2 3 4 5 6 7 8 9 10 11 12 13 14 15 16 17 18 19 20 21 22 23 24 25 26 27 28 29 30 31 32 33 34 35 36 37 38 39 40 41 42 43 44 45 46 47 48 49 50

000
ASUS45 KSLC 020410
RWRUT
UTAH REGIONAL WEATHER ROUNDUP
NATIONAL WEATHER SERVICE SALT LAKE CITY UT
1000 PM MDT SAT AUG 01 2015

UTZ001>011-023>025-020500-

NORTHERN UTAH

CITY           SKY/WX    TMP DP  RH WIND       PRES   REMARKS
BRIGHAM CITY   PTCLDY    83  36  19 W5        30.01R
HILL AFB       PTCLDY    80  38  23 E6        30.04S
LOGAN          CLEAR     74  49  41 SW6       30.02R
OGDEN          PTCLDY    77  44  30 S6        30.01R
PROVO AIRPORT  MOCLDY    73  48  40 SE6       30.03R
SALT LAKE CITY MOCLDY    82  39  21 N6        29.99R
VERNAL         PTCLDY    78  42  27 CALM      30.08R
WENDOVER       MOCLDY    81  30  16 W6        30.01S
HEBER CITY     PTCLDY    66  41  39 E5        30.11R
WEST JORDAN    CLEAR     77  36  22 CALM      30.04R

$$

UTZ012>022-026-027-020500-

SOUTHERN/CENTRAL UTAH

CITY           SKY/WX    TMP DP  RH WIND       PRES   REMARKS
BLANDING       CLOUDY    69  63  79 N3        30.25S
BRYCE CANYON   CLOUDY    64  48  56 W3        30.29R
CEDAR CITY     CLOUDY    71  52  50 SW7       30.13F
DELTA          MOCLDY    80  27  14 NE6       30.02R
HANKSVILLE     PTCLDY    81  48  32 SE7       30.03R
MILFORD        CLOUDY    78  52  40 S15       30.06R
MOAB/CYNLANDS  CLEAR     82  49  31 E10       30.03R
PRICE          MOCLDY    80  48  32 SE9       30.14R
ST GEORGE      PTCLDY    84  54  34 SW9       29.98R
KANAB          CLOUDY    75  57  53 CALM      30.16R

$$

REGIONAL REPORTS     COLORADO/ARIZONA

CITY           SKY/WX    TMP DP  RH WIND       PRES   REMARKS
CRAIG, CO      CLOUDY    65  45  48 W5        30.16R
GRAND JUNCTION CLOUDY    78  49  35 SE20      30.09R
RIFLE          CLOUDY    75  48  38 SE10      30.12R
MONTROSE       LGT RAIN  66  57  72 SE12      30.23R
CORTEZ         CLEAR     66  60  81 SE3       30.20R
PAGE, AZ       MOCLDY    85  53  33 W8        30.02R
GRAND CANYON   CLOUDY    64  56  75 CALM      30.25R
KINGMAN        PTCLDY    75  54  47 E7        30.03R
FLAGSTAFF      CLOUDY    63  56  78 CALM      30.29R

$$

REGIONAL REPORTS    NEVADA/IDAHO/WYOMING

CITY           SKY/WX    TMP DP  RH WIND       PRES   REMARKS
LAS VEGAS, NV  CLOUDY    87  52  29 NW10      29.89R
ELY            CLOUDY    73  38  27 S9        30.19R
ELKO           MOCLDY    80  27  14 E5        30.05R
POCATELLO, ID  CLEAR     77  36  22 E5        30.03R
BURLEY         PTCLDY    69  50  50 CALM      29.99R
EVANSTON, WY   PTCLDY    69  28  21 N9        30.24R
ROCK SPRINGS   PTCLDY    71  26  18 S5        30.19R
KEMMERER       PTCLDY    64  30  27 NW13      30.26S

$$


USA.gov is the U.S. government's official web portal to all federal, state and local government web resources and services.